Location: Newark
(54.4000°N, 32.4500°E)
Time: 00:18:30
(UTC+00:00)

Envisat - Pass Details

Date: 25 January 2020
Orbit: 764 x 766 km, 98.1° (Epoch: 21 February)

Event Time Altitude Azimuth Distance (km) Brightness Sun altitude
Rises 15:49:39 0° 177° (S) 3,223 6.4 -13.5°
Reaches altitude 10° 15:52:00 10° 181° (S) 2,301 5.7 -13.9°
Maximum altitude 15:56:59 55° 260° (W) 919 3.8 -14.6°
Drops below altitude 10° 16:02:00 10° 338° (NNW) 2,317 5.6 -15.3°
Sets 16:04:22 0° 343° (NNW) 3,248 6.3 -15.6°
